GW4669 Weather Reports


time (UTC)temp
C
wind
direction
speed
KPH
gust
KPH
rain 1hr
cm
rain 24hr
cm
rain mn
cm
humidity
%
barometer
mb
20260504081823 6 173 3.2 4.8 0.00 0.00 0.00 79 1008.8
20260504081320 6 166 4.8 8.0 0.00 0.00 0.00 83 1008.6
20260504080816 5 137 3.2 6.4 0.00 0.00 0.00 89 1008.5
20260504080313 5 125 3.2 6.4 0.00 0.00 0.00 91 1008.9
20260504070235 6 215 0.0 3.2 0.00 0.00 0.00 94 1008.8
20260504060155 6 136 1.6 3.2 0.00 0.00 0.00 94 1009.1
20260504050624 6 109 3.2 4.8 0.00 0.00 0.00 93 1009.6
20260504050121 6 106 1.6 3.2 0.00 0.00 0.00 93 1009.6
20260504045618 6 143 0.0 3.2 0.00 0.00 0.00 93 1009.6
20260504045112 6 153 1.6 3.2 0.00 0.00 0.00 93 1009.7
20260504044611 6 146 3.2 4.8 0.00 0.00 0.00 93 1009.7
20260504044107 6 150 3.2 4.8 0.00 0.00 0.00 93 1009.7
20260504043604 6 171 0.0 3.2 0.00 0.00 0.00 93 1009.8
20260504043102 6 174 1.6 3.2 0.00 0.00 0.00 93 1009.8
20260504042559 6 132 0.0 3.2 0.00 0.00 0.00 93 1009.9
20260504042055 6 97 0.0 1.6 0.00 0.00 0.00 92 1009.8
20260504041551 7 186 1.6 3.2 0.00 0.00 0.00 92 1009.9
20260504041048 7 106 1.6 3.2 0.00 0.00 0.00 92 1010.0
20260504040545 7 103 3.2 3.2 0.00 0.00 0.00 92 1010.1
20260504040041 7 5 1.6 4.8 0.00 0.00 0.00 92 1010.2
20260504035538 7 8 3.2 3.2 0.00 0.00 0.00 92 1009.9
20260504035035 7 146 3.2 4.8 0.00 0.00 0.00 92 1009.9
20260504034533 7 289 1.6 11.3 0.00 0.00 0.00 92 1009.7
20260504034029 7 160 3.2 4.8 0.00 0.00 0.00 91 1009.9
20260504033528 7 210 3.2 4.8 0.00 0.00 0.00 91 1009.6
20260504033024 7 63 1.6 4.8 0.00 0.00 0.00 90 1009.6
20260504032521 7 153 3.2 8.0 0.00 0.00 0.00 90 1010.2
20260504032018 7 129 1.6 4.8 0.00 0.00 0.00 89 1010.5
20260504031515 7 314 1.6 4.8 0.00 0.00 0.00 89 1010.8
20260504031011 7 224 0.0 1.6 0.00 0.00 0.00 88 1010.7
20260504030509 7 206 0.0 1.6 0.00 0.00 0.00 86 1010.3
20260504030005 7 158 1.6 4.8 0.00 0.00 0.00 84 1010.2
20260504025502 7 112 1.6 3.2 0.00 0.00 0.00 82 1010.5
20260504024958 8 125 0.0 3.2 0.00 0.00 0.00 80 1010.5
20260504024455 8 59 0.0 1.6 0.00 0.00 0.00 78 1010.6
20260504023953 8 129 1.6 3.2 0.00 0.00 0.00 75 1010.8
20260504023449 8 313 6.4 9.7 0.00 0.00 0.00 74 1010.9
20260504022944 8 134 3.2 4.8 0.00 0.00 0.00 72 1010.9
20260504022441 8 6 1.6 3.2 0.00 0.00 0.00 71 1010.9
20260504021938 9 321 3.2 4.8 0.05 0.00 0.00 67 1010.7
20260504021435 9 311 6.4 8.0 0.00 0.00 0.00 65 1010.6
20260504020932 10 275 0.0 8.0 0.00 0.00 0.00 64 1010.6
20260504020429 10 284 1.6 6.4 0.00 0.00 0.00 62 1010.5
20260504015926 10 298 6.4 17.7 0.00 0.00 0.00 61 1010.5
20260504015421 9 56 1.6 3.2 0.00 0.00 0.00 66 1010.3
20260504014917 9 241 0.0 3.2 0.00 0.00 0.00 62 1010.4
20260504014414 10 75 0.0 3.2 0.00 0.00 0.00 61 1010.2
20260504013911 10 128 0.0 4.8 0.00 0.00 0.00 58 1010.1
20260504013409 10 338 1.6 6.4 0.00 0.00 0.00 57 1010.3
20260504012905 10 310 3.2 6.4 0.00 0.00 0.00 54 1010.2
20260504012403 10 95 0.0 6.4 0.00 0.00 0.00 55 1010.1
20260504011900 10 341 6.4 8.0 0.00 0.00 0.00 53 1010.4
20260504011357 10 106 3.2 3.2 0.00 0.00 0.00 53 1010.0
20260504010853 10 296 0.0 3.2 0.00 0.00 0.00 52 1010.1
20260504010348 10 237 1.6 4.8 0.00 0.00 0.00 52 1010.0
20260504005844 10 261 0.0 3.2 0.00 0.00 0.00 51 1010.0
20260504005341 10 281 6.4 11.3 0.00 0.00 0.00 51 1010.2
20260504004839 10 205 4.8 6.4 0.00 0.00 0.00 52 1009.9
20260504004336 10 30 0.0 11.3 0.00 0.00 0.00 52 1010.0
20260504003832 10 345 0.0 8.0 0.00 0.00 0.00 53 1010.1
20260504003330 10 339 8.0 11.3 0.00 0.00 0.00 53 1010.1
20260504002826 10 352 1.6 8.0 0.00 0.00 0.00 52 1010.0
20260504002323 10 121 1.6 3.2 0.00 0.00 0.00 56 1010.2
20260504001821 10 236 0.0 3.2 0.00 0.00 0.00 52 1010.2
20260504001318 10 261 0.0 1.6 0.00 0.00 0.00 52 1010.1
20260504000815 10 130 0.0 1.6 0.00 0.00 0.00 52 1009.9
20260504000312 10 189 0.0 1.6 0.00 0.00 0.00 50 1010.0
20260503235809 10 44 0.0 1.6 0.00 0.00 0.00 48 1010.0
20260503235307 10 221 0.0 1.6 0.00 0.00 0.00 49 1010.0
20260503234804 10 223 0.0 1.6 0.00 0.00 0.00 47 1009.9
20260503234302 10 275 0.0 1.6 0.00 0.00 0.00 46 1009.6
20260503233759 11 310 3.2 6.4 0.00 0.00 0.00 43 1009.6
20260503233255 11 287 4.8 8.0 0.00 0.00 0.00 43 1009.5
20260503232752 11 328 0.0 3.2 0.00 0.00 0.00 43 1009.6
20260503232249 11 297 3.2 6.4 0.00 0.00 0.00 43 1009.4
20260503231747 11 347 3.2 8.0 0.00 0.00 0.00 42 1009.7
20260503231244 11 43 0.0 4.8 0.00 0.00 0.00 42 1009.6
20260503230740 11 306 3.2 11.3 0.00 0.00 0.00 41 1009.6
20260503230238 11 292 3.2 12.9 0.00 0.00 0.00 40 1009.6
20260503225735 11 275 0.0 8.0 0.00 0.00 0.00 41 1009.8
20260503225234 11 340 4.8 8.0 0.00 0.00 0.00 41 1009.7
20260503224732 11 317 4.8 9.7 0.00 0.00 0.00 40 1009.6
20260503224230 11 284 3.2 4.8 0.00 0.00 0.00 41 1009.7
20260503223727 11 316 4.8 11.3 0.00 0.00 0.00 40 1009.7
20260503223225 11 287 3.2 11.3 0.00 0.00 0.00 40 1009.5
20260503222721 11 251 0.0 17.7 0.00 0.00 0.00 40 1009.7
20260503222219 11 292 9.7 16.1 0.00 0.00 0.00 39 1009.6
20260503221717 11 317 8.0 14.5 0.00 0.00 0.00 38 1009.6
20260503221214 11 308 6.4 19.3 0.00 0.00 0.00 38 1009.5
20260503220705 12 310 4.8 11.3 0.00 0.00 0.00 37 1009.4
20260503220201 11 321 3.2 22.5 0.00 0.00 0.00 37 1009.5
20260503215658 12 156 1.6 22.5 0.00 0.00 0.00 37 1009.5
20260503215155 11 265 4.8 32.2 0.00 0.00 0.00 37 1009.5
20260503214654 12 323 17.7 25.7 0.00 0.00 0.00 36 1009.5
20260503214149 12 291 6.4 25.7 0.00 0.00 0.00 36 1009.6
20260503213644 11 351 3.2 8.0 0.00 0.00 0.00 39 1009.6
20260503213140 11 328 17.7 24.1 0.00 0.00 0.00 37 1009.6
20260503212637 11 286 8.0 16.1 0.00 0.00 0.00 37 1009.4
20260503212135 11 270 3.2 14.5 0.00 0.00 0.00 36 1009.5
20260503211632 11 195 3.2 32.2 0.00 0.00 0.00 36 1009.4
20260503211127 11 295 9.7 11.3 0.00 0.00 0.00 35 1009.4
20260503210623 11 271 9.7 29.0 0.00 0.00 0.00 35 1009.5
20260503210120 12 351 6.4 17.7 0.00 0.00 0.00 34 1009.4
20260503205616 11 250 3.2 11.3 0.00 0.00 0.00 35 1009.4
20260503205112 11 309 11.3 24.1 0.00 0.00 0.00 34 1009.3
20260503204609 11 316 6.4 11.3 0.00 0.00 0.00 34 1009.4
20260503204107 11 293 11.3 22.5 0.00 0.00 0.00 33 1009.6
20260503203603 11 316 3.2 17.7 0.00 0.00 0.00 33 1009.6
20260503203101 11 334 17.7 17.7 0.00 0.00 0.00 33 1009.6
20260503202558 12 313 8.0 16.1 0.00 0.00 0.00 32 1009.6
20260503202056 12 327 14.5 24.1 0.00 0.00 0.00 31 1009.3
20260503201554 12 304 4.8 24.1 0.00 0.00 0.00 30 1009.7
20260503201051 12 311 16.1 24.1 0.00 0.00 0.00 30 1009.5
20260503200547 11 330 4.8 17.7 0.00 0.00 0.00 29 1009.6
20260503200044 12 6 1.6 17.7 0.00 0.00 0.00 29 1009.7
20260503195541 13 252 14.5 27.4 0.00 0.00 0.00 27 1009.7
20260503195038 12 147 3.2 33.8 0.00 0.00 0.00 28 1009.7
20260503194535 13 304 9.7 27.4 0.00 0.00 0.00 27 1009.7
20260503194035 12 264 4.8 25.7 0.00 0.00 0.00 26 1009.9
20260503193532 12 318 6.4 17.7 0.00 0.00 0.00 26 1009.8
20260503193027 12 324 14.5 27.4 0.00 0.00 0.00 28 1009.8
20260503192523 12 315 1.6 9.7 0.00 0.00 0.00 27 1009.9
20260503192019 12 15 9.7 17.7 0.00 0.00 0.00 29 1010.0
20260503191516 11 291 12.9 30.6 0.00 0.00 0.00 28 1010.2
20260503191013 11 275 16.1 41.8 0.00 0.00 0.00 28 1010.4
20260503190510 12 287 8.0 19.3 0.00 0.00 0.00 29 1010.3
20260503190008 11 299 11.3 32.2 0.00 0.00 0.00 29 1010.6
20260503185504 11 290 4.8 33.8 0.00 0.00 0.00 29 1010.5
20260503185003 11 335 4.8 24.1 0.00 0.00 0.00 29 1010.5
20260503184500 11 325 25.7 38.6 0.00 0.00 0.00 30 1010.6
20260503183956 11 265 3.2 29.0 0.00 0.00 0.00 31 1010.8
20260503183453 11 309 25.7 38.6 0.00 0.00 0.00 29 1010.9
20260503182950 12 313 12.9 32.2 0.00 0.00 0.00 31 1011.2
20260503182449 12 326 14.5 14.5 0.00 0.00 0.00 32 1011.0
20260503181946 11 66 3.2 29.0 0.00 0.00 0.00 31 1011.1
20260503181443 12 255 6.4 20.9 0.00 0.00 0.00 30 1011.0
20260503180939 10 304 17.7 29.0 0.00 0.00 0.00 29 1011.0
20260503180437 10 278 16.1 33.8 0.00 0.00 0.00 31 1011.1
20260503175934 10 297 9.7 30.6 0.00 0.00 0.00 32 1010.9
20260503175432 11 262 16.1 25.7 0.00 0.00 0.00 30 1010.9
20260503174927 11 313 17.7 27.4 0.00 0.00 0.00 30 1011.1
20260503174426 11 268 8.0 41.8 0.00 0.00 0.00 31 1011.2
20260503173926 10 269 8.0 25.7 0.00 0.00 0.00 32 1011.3
20260503173422 11 239 4.8 17.7 0.00 0.00 0.00 35 1011.3
20260503172919 10 329 4.8 12.9 0.00 0.00 0.00 34 1011.3
20260503172417 9 340 6.4 22.5 0.00 0.00 0.00 35 1011.3
20260503171912 10 295 4.8 22.5 0.00 0.00 0.00 34 1011.2
20260503171409 10 294 6.4 24.1 0.00 0.00 0.00 37 1011.5
20260503170907 10 259 6.4 24.1 0.00 0.00 0.00 35 1011.4
20260503170403 10 188 4.8 30.6 0.00 0.00 0.00 35 1011.6
20260503150755 7 334 6.4 16.1 0.00 0.00 0.00 44 1012.6
20260503150251 8 236 1.6 19.3 0.00 0.00 0.00 46 1012.4
20260503140216 7 296 11.3 11.3 0.00 0.00 0.00 47 1012.5
20260503131145 6 307 9.7 22.5 0.00 0.00 0.00 50 1013.0
20260503130643 6 337 11.3 24.1 0.00 0.00 0.00 52 1012.9
20260503130140 6 350 3.2 20.9 0.00 0.00 0.00 54 1013.0
20260503120105 4 314 4.8 9.7 0.00 0.00 0.00 72 1012.7
20260503110533 3 305 8.0 12.9 0.00 0.00 0.00 75 1012.5